Location: ???????????
(54.5822°N, 39.1075°E)
Time: 02:47:40
(UTC+00:00)

NOSS 2-2 (D) - Pass Details

Date: 19 May 2025
Orbit: 390 x 1716 km, 63.3° (Epoch: 14 June)

Event Time Altitude Azimuth Distance (km) Brightness Sun altitude
Rises 22:07:35 0° 310° (NW) 2,413 7.0 -14.8°
Reaches altitude 10° 22:09:29 10° 315° (NW) 1,624 6.2 -14.7°
Maximum altitude 22:12:57 55° 35° (NE) 660 4.0 -14.6°
Drops below altitude 10° 22:17:32 10° 114° (ESE) 2,132 6.2 -14.4°
Sets 22:20:20 0° 118° (ESE) 3,271 7.1 -14.3°
